ARIANE 2 DEB, 27030

Orbit data source: Space-Track

ARIANE 2 DEB, 27030 is space debris in HEO originally from a launch on Fri, 27 Jan 1989 UTC launched from the French Guiana (FRGUI). Debris objects in space refer to the collection of defunct objects orbiting the Earth. Examples of debris include non-operational satellites, rocket bodies, and fragments generated from explosions, collisions, or faulty payload assembly.

Loading next visibility...
Identifier
27030, 1989-006K
Orbit
HEO
Country
Flag of FRFR
Related business
Manufacturer
EADS/LV
Mission
Spacecraft
Bus & Motor
Unknown
Mass
Unknown
Launch date (UTC)
1989-01-27 (37 years ago)
Launch vehicle
Unknown
Launch site
French Guiana (FRGUI)
Object type
Payload
Rocket body
Debris
Shape & HBR
Unknown shape, 0.4 m
Radar Cross Section
Medium (>0.1 m² and <1 m²)

Expand to show TLE details & history
Last TLE update: 1 day ago

TLE from 1 day ago
0 ARIANE 2 DEB
1 27030U 89006K   25291.31170119  .00001837  00000-0  10424-1 0  9998
2 27030   8.3602  54.0288 7110655 120.4137 327.5430  2.37330069204220
Epoch: 2025-10-18T07:28Z
TLE epoch observation values (Epoch: 2025-10-18T07:28:50.982Z)
Latitude
0.00005°
Longitude
-85.14665°
Altitude
11,927.424 km
Speed
5.173 km/s
True Right ascension
03h 36m 26s
True Declination
0° 00' 00"
Sunlit
Object was in daylight at epoch
Visualization orbit readout
Latitude
Unknown
Longitude
Unknown
Altitude
Unknown
Speed
Unknown
Apparent Right ascension
Unknown
Apparent Declination
Unknown
Sunlit
N/A
Visualization observer readout
Local Sidereal Time
12:47:58
Azimuth
Unknown
Elevation
Unknown
Doppler factor
Unknown
Orbital elements
Apogee altitude
34,253.23 km
Perigee altitude
482.97 km
Semi-major axis
23,746.237 km
Eccentricity
0.71107
Inclination
8.3602°
RAAN
54.0288°
Arg. of periapsis
120.4137°
True anomaly
239.91825°
Mean anomaly
327.543°
Eccentric anomaly
289.02808°
Mean motion
0.59313 °/min
Orbital period
606.95 mins
BSTAR
0.010424
Loading maneuver chart data...
Computing Atmospheric mass density...
Loading historical data...
Loading historical data...
Loading historical data...
Loading historical data...
Loading historical data...
Loading historical data...
Loading historical data...

Documentation

Showing up to 5 results
|